Simultaneous Nadir Overpasses (SNOs) Predictions

Prediction of SNOs between FY3D and LANDSAT-8 Satellite Orbit:

Table of predicted SNOs for the next 14.0 days since TLE Epoch: 8/17/2024
Index Date (FY3D) Time (FY3D) Lat,Lon (FY3D) SZA (FY3D ) Date (LANDSAT-8) Time (LANDSAT-8) Lat,Lon (LANDSAT-8) SZA (LANDSAT-8 ) Distance(km) Time Diff (sec)
1 08/18/2024 22:03:56 75.32,-148.33 62.54 08/18/2024 22:05:01 75.21,-145.26 62.49 87.66 65
2 08/18/2024 22:54:26 -74.66, 20.92 118.08 08/18/2024 22:54:39 -74.68, 21.00 118.06 3.35 13
3 08/18/2024 23:45:11 74.58,-171.55 61.85 08/18/2024 23:44:06 74.61,-171.54 61.87 3.12 65
4 08/21/2024 14:21:01 74.71, -30.80 62.84 08/21/2024 14:21:40 74.71, -30.68 62.85 3.55 39
5 08/21/2024 15:11:43 -74.62, 136.77 117.23 08/21/2024 15:11:09 -74.64, 136.78 117.22 2.55 34
6 08/24/2024 05:47:33 -74.72, -82.41 116.25 08/24/2024 05:48:43 -74.72, -82.41 116.24 0.55 70
7 08/24/2024 06:38:18 74.64, 85.10 63.70 08/24/2024 06:38:10 74.64, 85.02 63.69 2.47 8
8 08/24/2024 07:28:54 -74.26,-106.54 116.65 08/24/2024 07:27:44 -74.32,-108.12 116.64 47.96 70
9 08/26/2024 22:04:50 -74.67, 33.45 115.36 08/26/2024 22:05:11 -74.68, 33.38 115.35 2.36 21
10 08/26/2024 22:55:36 74.65,-159.18 64.64 08/26/2024 22:54:37 74.64,-159.07 64.63 3.39 59
11 08/29/2024 13:31:24 74.71, -18.23 65.62 08/29/2024 13:32:08 74.72, -18.25 65.64 2.02 44
12 08/29/2024 14:22:07 -74.65, 149.25 114.42 08/29/2024 14:21:37 -74.66, 149.23 114.42 1.25 30



Historial Predications of SNOs between FY3D and LANDSAT-8
